FW8418 Weather Reports


Display with metric or nautical units.
time (UTC)temp
F
wind
direction
speed
MPH
gust
MPH
rain 1hr
in
rain 24hr
in
rain mn
in
humidity
%
barometer
mb
20260508224605 63 301 2.0 11.0 0.00 0.00 0.00 39 1006.6
20260508223044 64 231 4.0 11.0 0.00 0.00 0.00 38 1006.7
20260508221556 64 278 3.0 14.0 0.00 0.00 0.00 37 1006.7
20260508220053 64 301 5.0 13.0 0.00 0.00 0.00 39 1006.8
20260508214550 64 249 4.0 12.0 0.00 0.00 0.00 39 1006.9
20260508213053 63 245 2.0 10.0 0.00 0.00 0.00 43 1007.0
20260508211555 63 242 2.0 8.0 0.00 0.00 0.00 44 1007.2
20260508210052 64 253 3.0 12.0 0.00 0.00 0.00 40 1007.2
20260508204547 63 342 7.0 13.0 0.00 0.00 0.00 40 1007.3
20260508203048 62 251 3.0 11.0 0.00 0.00 0.00 39 1007.6
20260508201548 63 320 3.0 15.0 0.00 0.00 0.00 38 1007.7
20260508200053 63 179 4.0 15.0 0.00 0.00 0.00 41 1007.9
20260508194548 63 264 4.0 18.0 0.00 0.00 0.00 39 1008.3
20260508193058 63 316 7.0 18.0 0.00 0.00 0.00 38 1008.5
20260508191547 62 273 5.0 13.0 0.00 0.00 0.00 40 1008.7
20260508190046 62 256 5.0 16.0 0.00 0.00 0.00 40 1008.9
20260508184546 63 271 6.0 13.0 0.00 0.00 0.00 38 1009.2
20260508183116 62 273 3.0 12.0 0.00 0.00 0.00 41 1009.4
20260508181610 61 0 6.0 10.0 0.00 0.00 0.00 41 1009.4
20260508180054 62 212 1.0 9.0 0.00 0.00 0.00 44 1009.5
20260508174550 60 0 1.0 14.0 0.00 0.00 0.00 42 1009.7
20260508173056 60 163 2.0 15.0 0.00 0.00 0.00 43 1009.9
20260508171551 60 302 3.0 14.0 0.00 0.00 0.00 42 1010.3
20260508170053 60 325 5.0 12.0 0.00 0.00 0.00 41 1010.5
20260508164545 59 303 4.0 12.0 0.00 0.00 0.00 44 1010.8
20260508163050 59 288 4.0 11.0 0.00 0.00 0.00 40 1011.0
20260508161553 58 201 5.0 14.0 0.00 0.00 0.00 39 1011.0
20260508160054 57 296 3.0 11.0 0.00 0.00 0.00 47 1011.2
20260508154552 57 252 3.0 14.0 0.00 0.00 0.00 49 1011.5
20260508153051 56 249 2.0 7.0 0.00 0.00 0.00 52 1011.4
20260508151547 54 48 0.0 9.0 0.00 0.00 0.00 55 1011.5
20260508150119 54 333 4.0 9.0 0.00 0.00 0.00 53 1011.7
20260508144600 53 254 0.0 6.0 0.00 0.00 0.00 56 1011.7
20260508143050 52 342 2.0 3.0 0.00 0.00 0.00 59 1011.8
20260508141559 52 5 2.0 6.0 0.00 0.00 0.00 59 1012.0
20260508140057 52 326 0.0 4.0 0.00 0.00 0.00 67 1012.0
20260508134544 51 0 0.0 6.0 0.00 0.00 0.00 70 1012.1
20260508133045 50 0 0.0 4.0 0.00 0.00 0.00 71 1012.2
20260508131556 49 0 0.0 1.0 0.00 0.00 0.00 75 1012.2
20260508130047 48 0 0.0 3.0 0.00 0.00 0.00 78 1012.2
20260508124542 47 250 0.0 2.0 0.00 0.00 0.00 81 1012.3
20260508123043 46 0 0.0 2.0 0.00 0.00 0.00 85 1012.1
20260508121550 44 0 0.0 3.0 0.00 0.00 0.00 88 1011.8
20260508120049 43 0 0.0 1.0 0.00 0.00 0.00 89 1011.8
20260508114548 43 0 0.0 0.0 0.00 0.00 0.00 90 1011.7
20260508113110 41 0 0.0 0.0 0.00 0.00 0.00 91 1011.5
20260508111546 40 0 0.0 0.0 0.00 0.00 0.00 91 1011.3
20260508110053 39 0 0.0 0.0 0.00 0.00 0.00 90 1011.0
20260508104555 39 0 0.0 0.0 0.00 0.00 0.00 89 1011.1
20260508103045 39 0 0.0 2.0 0.00 0.00 0.00 89 1010.9
20260508101548 39 0 0.0 0.0 0.00 0.00 0.00 88 1011.0
20260508100043 40 0 0.0 0.0 0.00 0.00 0.00 87 1010.9
20260508094543 41 0 0.0 0.0 0.00 0.00 0.00 87 1011.0
20260508093052 41 0 0.0 0.0 0.00 0.00 0.00 86 1011.0
20260508091548 42 0 0.0 0.0 0.00 0.00 0.00 85 1011.0
20260508090050 42 0 0.0 4.0 0.00 0.00 0.00 84 1011.1
20260508084543 43 250 0.0 5.0 0.00 0.00 0.00 84 1010.9
20260508083043 43 0 0.0 1.0 0.00 0.00 0.00 83 1011.1
20260508081544 44 0 1.0 6.0 0.00 0.00 0.00 82 1011.2
20260508080049 44 272 1.0 7.0 0.00 0.00 0.00 82 1011.3
20260508074550 44 232 2.0 7.0 0.00 0.00 0.00 81 1011.2
20260508073059 44 198 2.0 5.0 0.00 0.00 0.00 80 1011.3
20260508071545 45 238 2.0 8.0 0.00 0.00 0.00 80 1011.6
20260508070049 45 264 2.0 5.0 0.00 0.00 0.00 79 1011.7
20260508064602 45 0 0.0 6.0 0.00 0.00 0.00 79 1011.7
20260508063048 45 0 2.0 6.0 0.00 0.00 0.00 78 1011.6
20260508061554 46 248 2.0 9.0 0.00 0.00 0.00 78 1011.7
20260508060050 45 227 0.0 6.0 0.00 0.00 0.00 78 1011.7
20260508054605 45 245 2.0 6.0 0.00 0.00 0.00 78 1011.7
20260508053050 44 0 1.0 5.0 0.00 0.00 0.00 79 1011.8
20260508051547 44 213 1.0 5.0 0.00 0.00 0.00 78 1011.7
20260508050100 44 206 1.0 5.0 0.00 0.00 0.00 78 1011.8
20260508044544 44 216 1.0 4.0 0.00 0.00 0.00 76 1011.8
20260508043050 45 202 0.0 3.0 0.00 0.00 0.00 75 1011.7
20260508041544 45 212 1.0 5.0 0.00 0.00 0.00 74 1011.7
20260508040057 46 202 1.0 4.0 0.00 0.00 0.00 72 1011.7
20260508034547 46 193 1.0 5.0 0.00 0.00 0.00 70 1011.6
20260508033045 47 182 2.0 5.0 0.00 0.00 0.00 69 1011.7
20260508031552 48 190 1.0 5.0 0.00 0.00 0.00 68 1011.7
20260508030046 48 205 0.0 3.0 0.00 0.00 0.00 67 1011.9
20260508024548 48 200 1.0 5.0 0.00 0.00 0.00 66 1012.1
20260508023046 48 0 1.0 5.0 0.00 0.00 0.00 63 1012.0
20260508021544 49 0 0.0 1.0 0.00 0.00 0.00 62 1011.8
20260508020042 49 0 0.0 4.0 0.00 0.00 0.00 62 1011.8
20260508014545 49 263 2.0 7.0 0.00 0.00 0.00 60 1011.8
20260508013046 50 297 6.0 14.0 0.00 0.00 0.00 60 1011.8
20260508011550 51 214 2.0 11.0 0.00 0.00 0.00 55 1011.7
20260508010046 51 209 0.0 4.0 0.00 0.00 0.00 52 1011.5
20260508004546 51 271 1.0 7.0 0.00 0.00 0.00 50 1011.3
20260508003044 51 0 0.0 0.0 0.00 0.00 0.00 50 1011.3
20260508001547 51 0 0.0 0.0 0.00 0.00 0.00 51 1011.2
20260508000105 52 0 1.0 5.0 0.00 0.00 0.00 50 1011.1
20260507234547 52 269 2.0 8.0 0.00 0.00 0.00 50 1011.1
20260507233048 52 262 2.0 8.0 0.00 0.00 0.00 51 1011.2
20260507231550 53 297 4.0 10.0 0.00 0.00 0.00 49 1011.2
20260507230043 53 301 2.0 10.0 0.00 0.00 0.00 49 1011.2